sat.trackr.live / text

‹ back to catalog

STARLINK-37050

NORAD 68228 · 2026-053X

PAYLOAD ACTIVE UNKNOWN

§ Identity

Operator
Country
US
Launch date
2026-03-17
Launch site
AFWTR
Launch vehicle
Mass (kg)
RCS (m²)

Purposes: comms

External: N2YO · Heavens-Above · Gunter

§ Orbital elements

Epoch: 2026-05-25T02:31:48.339840Z

Period
93.91 min
Inclination
97.2869°
Eccentricity
0.0001369
Mean motion
15.33458830 rev/d
Perigee alt
464.6 km
Apogee alt
466.4 km
Semi-major
6,843.6 km
B*
5.7237e-4
RAAN
20.6283°
Arg perigee
58.1920°
Mean anomaly
301.9456°
Rev number
1,191

§ Raw data

STARLINK-370501 68228U 26053X   26145.10542060  .00018456  00000+0  57237-3 0  99982 68228  97.2869  20.6283 0001369  58.1920 301.9456 15.33458830 11914

JSON: /api/v1/satellites/68228 · /tle

For live sub-satellite position, see the globe view (requires WebGL).

§ Visibility from observer

Set your observer location to see the next 7 days of passes ≥ 10°. The values pass through the URL so the page stays shareable.

No JS? Fill the form by hand. The geolocation button needs JavaScript.